LUJ142 GVAC-GMMN

Flight info

Callsign LUJ142
Flight time 3h 6m
Altitude 39000
Route PINPO UW11 GUNET/N0507F430 DCT PE/N0502F450 DCT MAURI L660 ARENA/N0512F430 L660 SOLNA UA600 ADM UG850 MAK UB11 MABAP UR722 FOBAC
Aircraft C750/M-SBDE3FGHIRWXY/LB1

Departure

Time 2026-04-28 17:17
Airport Amílcar Cabral International Airport (GVAC)

Arrival

Time 2026-04-28 20:23
Airport Mohammed V International Airport (GMMN)
Time Latitude Longitude Altitude Speed Heading
2026-04-28 17:02 16.73659 -22.94530 197 ft 0 kts 229°
2026-04-28 17:09 16.73653 -22.94537 197 ft 3 kts 227°
2026-04-28 17:09 16.73634 -22.94556 197 ft 2 kts 250°
2026-04-28 17:09 16.73630 -22.94574 197 ft 6 kts 257°
2026-04-28 17:10 16.73616 -22.94633 197 ft 9 kts 255°
2026-04-28 17:10 16.73594 -22.94683 200 ft 6 kts 221°
2026-04-28 17:10 16.73573 -22.94692 196 ft 0 kts 186°
2026-04-28 17:10 16.73571 -22.94692 196 ft 2 kts 185°
2026-04-28 17:11 16.73542 -22.94694 196 ft 8 kts 182°
2026-04-28 17:11 16.73449 -22.94694 196 ft 18 kts 179°
2026-04-28 17:11 16.73326 -22.94693 197 ft 17 kts 179°
2026-04-28 17:11 16.73211 -22.94691 197 ft 18 kts 180°
2026-04-28 17:12 16.73078 -22.94691 196 ft 19 kts 178°
2026-04-28 17:12 16.72949 -22.94690 189 ft 21 kts 181°
2026-04-28 17:12 16.72798 -22.94689 185 ft 21 kts 179°
2026-04-28 17:12 16.72652 -22.94688 183 ft 21 kts 180°
2026-04-28 17:13 16.72504 -22.94687 179 ft 21 kts 178°
2026-04-28 17:13 16.72426 -22.94696 179 ft 7 kts 207°
2026-04-28 17:13 16.72406 -22.94727 180 ft 4 kts 263°
2026-04-28 17:13 16.72408 -22.94752 180 ft 4 kts 274°
2026-04-28 17:14 16.72408 -22.94789 181 ft 0 kts 269°
2026-04-28 17:14 16.72407 -22.94813 182 ft 7 kts 268°
2026-04-28 17:15 16.72406 -22.94871 183 ft 7 kts 269°
2026-04-28 17:15 16.72407 -22.94886 183 ft 0 kts 289°
2026-04-28 17:15 16.72424 -22.94891 183 ft 0 kts
2026-04-28 17:16 16.72474 -22.94887 184 ft 34 kts
2026-04-28 17:17 16.73102 -22.94891 188 ft 136 kts 359°
2026-04-28 17:17 16.74167 -22.94901 535 ft 159 kts 359°
2026-04-28 17:17 16.75321 -22.94914 1108 ft 173 kts 359°
2026-04-28 17:17 16.76580 -22.94903 1575 ft 194 kts
2026-04-28 17:18 16.78045 -22.94885 1918 ft 226 kts
2026-04-28 17:18 16.79715 -22.94868 2358 ft 254 kts
2026-04-28 17:18 16.81526 -22.94849 3175 ft 262 kts
2026-04-28 17:18 16.83346 -22.94832 4241 ft 264 kts
2026-04-28 17:19 16.85200 -22.94681 5088 ft 273 kts 15°
2026-04-28 17:19 16.86759 -22.93581 5939 ft 276 kts 51°
2026-04-28 17:19 16.87543 -22.91765 6853 ft 277 kts 74°
2026-04-28 17:19 16.87985 -22.89797 7821 ft 279 kts 78°
2026-04-28 17:20 16.88401 -22.87801 8795 ft 283 kts 78°
2026-04-28 17:20 16.88679 -22.86440 9416 ft 286 kts 78°
2026-04-28 17:20 16.89207 -22.83704 10395 ft 298 kts 79°
2026-04-28 17:20 16.89627 -22.81488 10583 ft 325 kts 79°
2026-04-28 17:21 16.90229 -22.79108 10613 ft 353 kts 70°
2026-04-28 17:21 16.91307 -22.76782 11307 ft 355 kts 60°
2026-04-28 17:21 16.92668 -22.74582 12043 ft 359 kts 54°
2026-04-28 17:22 16.96191 -22.70820 13347 ft 366 kts 44°
2026-04-28 17:22 16.97931 -22.68858 13947 ft 370 kts 48°
2026-04-28 17:22 16.99705 -22.66893 14586 ft 373 kts 46°
2026-04-28 17:23 17.03330 -22.62953 15807 ft 380 kts 47°
2026-04-28 17:23 17.05135 -22.60902 16427 ft 384 kts 47°
2026-04-28 17:23 17.06946 -22.58880 17041 ft 387 kts 46°
2026-04-28 17:23 17.08831 -22.56806 17673 ft 391 kts 46°
2026-04-28 17:24 17.10703 -22.54728 18300 ft 394 kts 47°
2026-04-28 17:24 17.12541 -22.52670 18913 ft 398 kts 47°
2026-04-28 17:24 17.14397 -22.50598 19536 ft 402 kts 47°
2026-04-28 17:24 17.16390 -22.48384 20183 ft 406 kts 47°
2026-04-28 17:25 17.18307 -22.46249 20803 ft 409 kts 47°
2026-04-28 17:25 17.22035 -22.42090 21957 ft 417 kts 47°
2026-04-28 17:25 17.24025 -22.39871 22549 ft 420 kts 47°
2026-04-28 17:26 17.26044 -22.37617 23127 ft 424 kts 47°
2026-04-28 17:26 17.28077 -22.35348 23692 ft 428 kts 47°
2026-04-28 17:26 17.30120 -22.33066 24245 ft 432 kts 47°
2026-04-28 17:26 17.32148 -22.30801 24780 ft 435 kts 47°
2026-04-28 17:27 17.34225 -22.28480 25296 ft 439 kts 47°
2026-04-28 17:27 17.35612 -22.26929 25640 ft 441 kts 47°
2026-04-28 17:27 17.38423 -22.23786 26317 ft 446 kts 47°
2026-04-28 17:27 17.40553 -22.21403 26815 ft 449 kts 47°
2026-04-28 17:28 17.42721 -22.18977 27309 ft 453 kts 47°
2026-04-28 17:28 17.46336 -22.14929 28109 ft 458 kts 47°
2026-04-28 17:28 17.48508 -22.12497 28571 ft 462 kts 47°
2026-04-28 17:29 17.50738 -22.09997 29030 ft 465 kts 47°
2026-04-28 17:29 17.52916 -22.07555 29463 ft 468 kts 47°
2026-04-28 17:29 17.55166 -22.05032 29898 ft 471 kts 47°
2026-04-28 17:30 17.59677 -21.99970 30732 ft 477 kts 47°
2026-04-28 17:30 17.64212 -21.94877 31849 ft 476 kts 47°
2026-04-28 17:30 17.66464 -21.92348 32416 ft 474 kts 47°
2026-04-28 17:31 17.68729 -21.89827 32959 ft 474 kts 46°
2026-04-28 17:31 17.73088 -21.84983 34016 ft 472 kts 47°
2026-04-28 17:32 17.77549 -21.79995 35088 ft 469 kts 47°
2026-04-28 17:32 17.79810 -21.77475 35628 ft 468 kts 46°
2026-04-28 17:32 17.82014 -21.75016 36138 ft 467 kts 47°
2026-04-28 17:32 17.84238 -21.72528 36640 ft 467 kts 47°
2026-04-28 17:33 17.86458 -21.70046 37107 ft 467 kts 47°
2026-04-28 17:33 17.88680 -21.67563 37571 ft 467 kts 47°
2026-04-28 17:33 17.90906 -21.65073 38033 ft 467 kts 47°
2026-04-28 17:33 17.92415 -21.63384 38341 ft 467 kts 47°
2026-04-28 17:34 17.95321 -21.60131 38928 ft 467 kts 47°
2026-04-28 17:34 17.97503 -21.57688 39360 ft 467 kts 47°
2026-04-28 17:34 17.99794 -21.55120 39809 ft 467 kts 47°
2026-04-28 17:34 18.02017 -21.52630 40242 ft 467 kts 47°
2026-04-28 17:35 18.04235 -21.50142 40656 ft 467 kts 47°
2026-04-28 17:35 18.06443 -21.47667 41061 ft 467 kts 47°
2026-04-28 17:35 18.08670 -21.45167 41463 ft 467 kts 47°
2026-04-28 17:35 18.10891 -21.42674 41853 ft 467 kts 47°
2026-04-28 17:36 18.13113 -21.40178 42230 ft 467 kts 47°
2026-04-28 17:36 18.15327 -21.37691 42594 ft 467 kts 47°
2026-04-28 17:36 18.17548 -21.35195 42950 ft 467 kts 47°
2026-04-28 17:36 18.19777 -21.32689 43293 ft 467 kts 47°
2026-04-28 17:37 18.21986 -21.30204 43624 ft 467 kts 47°
2026-04-28 17:37 18.24146 -21.27774 43937 ft 467 kts 47°
2026-04-28 17:37 18.26417 -21.25217 44250 ft 467 kts 47°
2026-04-28 17:37 18.28637 -21.22717 44559 ft 467 kts 47°
2026-04-28 17:38 18.30854 -21.20220 44848 ft 464 kts 47°
2026-04-28 17:38 18.33059 -21.17735 45010 ft 466 kts 47°
2026-04-28 17:38 18.37553 -21.12666 44998 ft 480 kts 47°
2026-04-28 17:39 18.42168 -21.07457 45017 ft 493 kts 47°
2026-04-28 17:39 18.46880 -21.02135 45012 ft 505 kts 47°
2026-04-28 17:40 18.49285 -20.99417 45009 ft 510 kts 47°
2026-04-28 17:40 18.54160 -20.93902 45002 ft 516 kts 47°
2026-04-28 17:41 18.59069 -20.88345 45011 ft 519 kts 47°
2026-04-28 17:41 18.64002 -20.82755 45011 ft 519 kts 47°
2026-04-28 17:42 18.68898 -20.77202 45004 ft 519 kts 47°
2026-04-28 17:42 18.73831 -20.71601 44998 ft 516 kts 47°
2026-04-28 17:43 18.78727 -20.66038 44994 ft 517 kts 47°
2026-04-28 17:43 18.83618 -20.60475 44994 ft 518 kts 47°
2026-04-28 17:44 18.88527 -20.54886 45000 ft 519 kts 47°
2026-04-28 17:44 18.93431 -20.49300 45005 ft 519 kts 47°
2026-04-28 17:45 18.98263 -20.43789 45006 ft 519 kts 47°
2026-04-28 17:45 19.03229 -20.38119 45006 ft 519 kts 47°
2026-04-28 17:46 19.08142 -20.32506 45007 ft 519 kts 47°
2026-04-28 17:46 19.13080 -20.26858 45005 ft 519 kts 47°
2026-04-28 17:47 19.17928 -20.21307 45007 ft 519 kts 47°
2026-04-28 17:47 19.22774 -20.15755 45008 ft 519 kts 47°
2026-04-28 17:48 19.27672 -20.10138 45008 ft 519 kts 47°
2026-04-28 17:48 19.32546 -20.04542 45002 ft 519 kts 47°
2026-04-28 17:49 19.37428 -19.98933 45007 ft 519 kts 47°
2026-04-28 17:49 19.42320 -19.93306 45008 ft 519 kts 47°
2026-04-28 17:50 19.47138 -19.87758 45005 ft 519 kts 47°
2026-04-28 17:50 19.51146 -19.83140 45005 ft 519 kts 47°
2026-04-28 17:51 19.55971 -19.77575 45004 ft 519 kts 47°
2026-04-28 17:51 19.60997 -19.72098 44987 ft 519 kts 41°
2026-04-28 17:52 19.66407 -19.67422 45009 ft 519 kts 39°
2026-04-28 17:52 19.74540 -19.60127 45011 ft 519 kts 40°
2026-04-28 17:53 19.80072 -19.55295 45009 ft 519 kts 40°
2026-04-28 17:53 19.85575 -19.50352 45009 ft 519 kts 40°
2026-04-28 17:54 19.91161 -19.45418 45010 ft 519 kts 40°
2026-04-28 17:54 19.96664 -19.40500 45010 ft 519 kts 40°
2026-04-28 17:55 20.02111 -19.35656 45009 ft 519 kts 40°
2026-04-28 17:55 20.07652 -19.30709 45010 ft 519 kts 40°
2026-04-28 17:56 20.13224 -19.25737 45010 ft 519 kts 40°
2026-04-28 17:56 20.18721 -19.20823 45010 ft 519 kts 40°
2026-04-28 17:57 20.24256 -19.15874 45010 ft 519 kts 40°
2026-04-28 17:57 20.29821 -19.10890 45002 ft 519 kts 40°
2026-04-28 17:58 20.35263 -19.06014 45007 ft 519 kts 40°
2026-04-28 17:58 20.40610 -19.01217 45008 ft 519 kts 40°
2026-04-28 17:59 20.46132 -18.96259 45009 ft 519 kts 40°
2026-04-28 17:59 20.51626 -18.91322 45009 ft 519 kts 40°
2026-04-28 18:00 20.57209 -18.86299 45010 ft 519 kts 40°
2026-04-28 18:00 20.62708 -18.81347 45007 ft 519 kts 40°
2026-04-28 18:01 20.68249 -18.76352 45006 ft 519 kts 40°
2026-04-28 18:01 20.73699 -18.71434 45002 ft 519 kts 40°
2026-04-28 18:02 20.78948 -18.66694 44999 ft 519 kts 40°
2026-04-28 18:02 20.84426 -18.61742 45004 ft 519 kts 40°
2026-04-28 18:03 20.89834 -18.56848 45002 ft 519 kts 40°
2026-04-28 18:03 20.95097 -18.52080 45007 ft 519 kts 40°
2026-04-28 18:04 21.00647 -18.47048 45009 ft 519 kts 40°
2026-04-28 18:04 21.06200 -18.42008 45004 ft 519 kts 40°
2026-04-28 18:05 21.10822 -18.37810 45007 ft 519 kts 40°
2026-04-28 18:05 21.17253 -18.31961 45007 ft 519 kts 40°
2026-04-28 18:06 21.21830 -18.27795 45008 ft 519 kts 40°
2026-04-28 18:06 21.27331 -18.22783 45008 ft 519 kts 40°
2026-04-28 18:07 21.33727 -18.16948 45009 ft 519 kts 40°
2026-04-28 18:07 21.38336 -18.12740 45009 ft 519 kts 40°
2026-04-28 18:08 21.43837 -18.07712 45009 ft 519 kts 40°
2026-04-28 18:08 21.49357 -18.02663 45010 ft 519 kts 40°
2026-04-28 18:09 21.54841 -17.97640 45010 ft 519 kts 40°
2026-04-28 18:09 21.60369 -17.92572 45010 ft 519 kts 40°
2026-04-28 18:10 21.65862 -17.87531 45000 ft 519 kts 40°
2026-04-28 18:10 21.71352 -17.82488 45006 ft 519 kts 40°
2026-04-28 18:11 21.76835 -17.77446 45000 ft 519 kts 40°
2026-04-28 18:11 21.82358 -17.72360 45004 ft 519 kts 40°
2026-04-28 18:12 21.87831 -17.67317 45005 ft 519 kts 40°
2026-04-28 18:12 21.93339 -17.62236 45009 ft 519 kts 40°
2026-04-28 18:13 21.98821 -17.57173 45005 ft 519 kts 40°
2026-04-28 18:13 22.04273 -17.52133 45004 ft 519 kts 40°
2026-04-28 18:14 22.09759 -17.47056 45007 ft 519 kts 40°
2026-04-28 18:14 22.15269 -17.41951 45007 ft 519 kts 40°
2026-04-28 18:15 22.20718 -17.36898 45008 ft 519 kts 40°
2026-04-28 18:15 22.26223 -17.31787 45008 ft 519 kts 40°
2026-04-28 18:16 22.31697 -17.26699 45008 ft 519 kts 40°
2026-04-28 18:16 22.37173 -17.21604 45009 ft 519 kts 40°
2026-04-28 18:17 22.42553 -17.16593 45005 ft 519 kts 40°
2026-04-28 18:17 22.48073 -17.11446 45007 ft 519 kts 41°
2026-04-28 18:18 22.53534 -17.06349 45009 ft 519 kts 41°
2026-04-28 18:18 22.58004 -17.02172 45010 ft 519 kts 41°
2026-04-28 18:19 22.64360 -16.96226 45007 ft 519 kts 41°
2026-04-28 18:19 22.69814 -16.91119 45008 ft 519 kts 41°
2026-04-28 18:20 22.75318 -16.85960 45005 ft 519 kts 41°
2026-04-28 18:20 22.80781 -16.80832 45008 ft 519 kts 41°
2026-04-28 18:21 22.86229 -16.75713 45008 ft 519 kts 41°
2026-04-28 18:21 22.91656 -16.70608 45009 ft 519 kts 41°
2026-04-28 18:22 22.97106 -16.65477 45010 ft 519 kts 41°
2026-04-28 18:22 23.02554 -16.60341 45002 ft 519 kts 41°
2026-04-28 18:23 23.05265 -16.57779 44597 ft 520 kts 33°
2026-04-28 18:23 23.08055 -16.55151 44715 ft 523 kts 33°
2026-04-28 18:23 23.10776 -16.52586 44837 ft 526 kts 33°
2026-04-28 18:23 23.13545 -16.49965 44955 ft 529 kts 33°
2026-04-28 18:24 23.18223 -16.45539 44985 ft 536 kts 34°
2026-04-28 18:24 23.24796 -16.39315 44978 ft 541 kts 34°
2026-04-28 18:25 23.30475 -16.33929 44979 ft 541 kts 34°
2026-04-28 18:26 23.38989 -16.25846 44984 ft 540 kts 34°
2026-04-28 18:26 23.44686 -16.20430 44979 ft 541 kts 34°
2026-04-28 18:27 23.50319 -16.15066 44974 ft 541 kts 34°
2026-04-28 18:27 23.55994 -16.09657 44972 ft 541 kts 34°
2026-04-28 18:28 23.61660 -16.04250 44970 ft 542 kts 34°
2026-04-28 18:28 23.67305 -15.98857 44973 ft 542 kts 34°
2026-04-28 18:29 23.73055 -15.93357 44973 ft 542 kts 35°
2026-04-28 18:29 23.79019 -15.88458 44973 ft 535 kts 28°
2026-04-28 18:30 23.85138 -15.83802 44974 ft 536 kts 29°
2026-04-28 18:30 23.91219 -15.79055 44981 ft 536 kts 28°
2026-04-28 18:31 23.97322 -15.74374 44981 ft 537 kts 28°
2026-04-28 18:31 24.03410 -15.69635 44977 ft 537 kts 29°
2026-04-28 18:32 24.09516 -15.64921 44985 ft 537 kts 29°
2026-04-28 18:32 24.15599 -15.60189 44984 ft 537 kts 29°
2026-04-28 18:33 24.21705 -15.55453 44989 ft 537 kts 29°
2026-04-28 18:33 24.27740 -15.50755 44990 ft 538 kts 29°
2026-04-28 18:34 24.32880 -15.46755 44987 ft 538 kts 29°
2026-04-28 18:34 24.38978 -15.42000 44991 ft 538 kts 29°
2026-04-28 18:35 24.45085 -15.37235 44991 ft 538 kts 30°
2026-04-28 18:35 24.51182 -15.32471 44993 ft 538 kts 30°
2026-04-28 18:36 24.57282 -15.27698 44994 ft 538 kts 30°
2026-04-28 18:36 24.63377 -15.22924 44990 ft 538 kts 30°
2026-04-28 18:37 24.69480 -15.18138 44991 ft 539 kts 30°
2026-04-28 18:37 24.75587 -15.13342 45004 ft 539 kts 30°
2026-04-28 18:38 24.81688 -15.08545 44996 ft 539 kts 30°
2026-04-28 18:38 24.87795 -15.03738 44996 ft 539 kts 30°
2026-04-28 18:39 24.93895 -14.98931 44998 ft 539 kts 30°
2026-04-28 18:39 24.99995 -14.94117 45003 ft 539 kts 30°
2026-04-28 18:40 25.06105 -14.89267 44995 ft 544 kts 30°
2026-04-28 18:40 25.12245 -14.84374 44998 ft 544 kts 30°
2026-04-28 18:41 25.18427 -14.79456 45000 ft 544 kts 31°
2026-04-28 18:41 25.24572 -14.74550 44995 ft 544 kts 30°
2026-04-28 18:42 25.30709 -14.69653 45002 ft 544 kts 31°
2026-04-28 18:42 25.36835 -14.64751 45002 ft 544 kts 31°
2026-04-28 18:43 25.42966 -14.59845 45001 ft 544 kts 31°
2026-04-28 18:43 25.49102 -14.54925 45007 ft 543 kts 31°
2026-04-28 18:44 25.55216 -14.50018 45006 ft 543 kts 31°
2026-04-28 18:44 25.64387 -14.42644 45001 ft 543 kts 31°
2026-04-28 18:45 25.70494 -14.37725 45008 ft 543 kts 31°
2026-04-28 18:45 25.76655 -14.32783 45011 ft 542 kts 30°
2026-04-28 18:46 25.82714 -14.28004 45007 ft 542 kts 31°
2026-04-28 18:46 25.88961 -14.23004 45012 ft 542 kts 31°
2026-04-28 18:47 25.95071 -14.18151 45012 ft 542 kts 31°
2026-04-28 18:47 26.01193 -14.13253 45013 ft 542 kts 31°
2026-04-28 18:48 26.07322 -14.08361 45013 ft 541 kts 31°
2026-04-28 18:48 26.13306 -14.03568 45016 ft 541 kts 31°
2026-04-28 18:49 26.17397 -14.00291 45019 ft 541 kts 31°
2026-04-28 18:49 26.25553 -13.93748 45015 ft 541 kts 31°
2026-04-28 18:50 26.31592 -13.88897 45005 ft 541 kts 31°
2026-04-28 18:50 26.37686 -13.83993 45011 ft 540 kts 31°
2026-04-28 18:51 26.43822 -13.79052 45004 ft 540 kts 31°
2026-04-28 18:51 26.49548 -13.74432 45009 ft 541 kts 31°
2026-04-28 18:52 26.55603 -13.69542 45007 ft 540 kts 31°
2026-04-28 18:52 26.61685 -13.64623 45005 ft 540 kts 31°
2026-04-28 18:53 26.67772 -13.59693 45003 ft 540 kts 31°
2026-04-28 18:53 26.73866 -13.54752 45003 ft 540 kts 31°
2026-04-28 18:54 26.78948 -13.50626 45004 ft 541 kts 31°
2026-04-28 18:54 26.84902 -13.45784 45001 ft 540 kts 31°
2026-04-28 18:55 26.91052 -13.40779 45000 ft 540 kts 31°
2026-04-28 18:55 26.97115 -13.35836 45004 ft 541 kts 31°
2026-04-28 18:56 27.03307 -13.30782 44999 ft 541 kts 31°
2026-04-28 18:56 27.09395 -13.25805 44998 ft 541 kts 31°
2026-04-28 18:57 27.15345 -13.20613 44974 ft 546 kts 39°
2026-04-28 18:57 27.20543 -13.14385 45002 ft 549 kts 44°
2026-04-28 18:58 27.25798 -13.08197 45003 ft 546 kts 41°
2026-04-28 18:58 27.31050 -13.01987 44994 ft 548 kts 44°
2026-04-28 18:59 27.36270 -12.95761 44987 ft 546 kts 42°
2026-04-28 18:59 27.41504 -12.89579 44984 ft 547 kts 43°
2026-04-28 19:00 27.46734 -12.83319 44980 ft 547 kts 43°
2026-04-28 19:00 27.51996 -12.77078 44980 ft 547 kts 43°
2026-04-28 19:01 27.57171 -12.70879 44979 ft 547 kts 43°
2026-04-28 19:01 27.62399 -12.64646 44976 ft 548 kts 43°
2026-04-28 19:02 27.67618 -12.58388 44979 ft 547 kts 43°
2026-04-28 19:02 27.70298 -12.55265 45158 ft 543 kts 41°
2026-04-28 19:02 27.72956 -12.52248 45410 ft 541 kts 41°
2026-04-28 19:03 27.75593 -12.49207 45572 ft 542 kts 42°
2026-04-28 19:03 27.78112 -12.46234 45692 ft 543 kts 43°
2026-04-28 19:03 27.83428 -12.40047 45948 ft 545 kts 42°
2026-04-28 19:04 27.86035 -12.37030 46129 ft 546 kts 42°
2026-04-28 19:04 27.88643 -12.33974 46293 ft 546 kts 43°
2026-04-28 19:04 27.91282 -12.30875 46479 ft 546 kts 42°
2026-04-28 19:04 27.93956 -12.27759 46648 ft 546 kts 42°
2026-04-28 19:05 27.96593 -12.24690 46807 ft 546 kts 42°
2026-04-28 19:05 27.99080 -12.21777 46952 ft 545 kts 42°
2026-04-28 19:05 28.04532 -12.15384 46962 ft 548 kts 42°
2026-04-28 19:06 28.08943 -12.10219 46964 ft 552 kts 42°
2026-04-28 19:06 28.15157 -12.02912 46968 ft 554 kts 42°
2026-04-28 19:07 28.20342 -11.96817 46964 ft 553 kts 43°
2026-04-28 19:07 28.25685 -11.90518 46966 ft 553 kts 43°
2026-04-28 19:08 28.31029 -11.84215 46958 ft 555 kts 43°
2026-04-28 19:08 28.36394 -11.77872 46959 ft 559 kts 43°
2026-04-28 19:09 28.41614 -11.71693 46957 ft 560 kts 43°
2026-04-28 19:09 28.47052 -11.65245 46956 ft 560 kts 43°
2026-04-28 19:10 28.52394 -11.58902 46955 ft 560 kts 43°
2026-04-28 19:10 28.56889 -11.53557 46946 ft 560 kts 43°
2026-04-28 19:11 28.62262 -11.47158 46948 ft 561 kts 43°
2026-04-28 19:11 28.67618 -11.40769 46941 ft 561 kts 43°
2026-04-28 19:12 28.73056 -11.34272 46956 ft 561 kts 43°
2026-04-28 19:12 28.77563 -11.28880 46966 ft 561 kts 43°
2026-04-28 19:13 28.82987 -11.22380 46973 ft 562 kts 43°
2026-04-28 19:13 28.88420 -11.15860 46981 ft 562 kts 43°
2026-04-28 19:14 28.93836 -11.09349 46989 ft 562 kts 43°
2026-04-28 19:14 28.99212 -11.02877 46992 ft 564 kts 43°
2026-04-28 19:15 29.04433 -10.96579 46990 ft 565 kts 43°
2026-04-28 19:15 29.08856 -10.91237 46986 ft 565 kts 43°
2026-04-28 19:16 29.15105 -10.83679 46985 ft 564 kts 43°
2026-04-28 19:16 29.20577 -10.77047 46986 ft 563 kts 44°
2026-04-28 19:17 29.25964 -10.70508 46981 ft 563 kts 44°
2026-04-28 19:17 29.31408 -10.63889 46976 ft 563 kts 44°
2026-04-28 19:18 29.36779 -10.57348 46977 ft 563 kts 44°
2026-04-28 19:18 29.42141 -10.50807 46980 ft 563 kts 44°
2026-04-28 19:19 29.47500 -10.44258 46973 ft 563 kts 44°
2026-04-28 19:19 29.52864 -10.37694 46965 ft 562 kts 44°
2026-04-28 19:20 29.57975 -10.31427 46978 ft 562 kts 44°
2026-04-28 19:20 29.63315 -10.24871 46969 ft 562 kts 44°
2026-04-28 19:21 29.68365 -10.18660 46979 ft 562 kts 44°
2026-04-28 19:21 29.73710 -10.12075 46981 ft 562 kts 44°
2026-04-28 19:22 29.77244 -10.07715 46978 ft 562 kts 44°
2026-04-28 19:22 29.84183 -9.99109 46976 ft 561 kts 45°
2026-04-28 19:23 29.89461 -9.92280 46968 ft 561 kts 45°
2026-04-28 19:23 29.94726 -9.85625 46971 ft 560 kts 45°
2026-04-28 19:24 29.99932 -9.78925 46966 ft 561 kts 45°
2026-04-28 19:24 30.04118 -9.73577 46960 ft 560 kts 45°
2026-04-28 19:25 30.09356 -9.67031 46955 ft 559 kts 44°
2026-04-28 19:25 30.14096 -9.61112 46935 ft 559 kts 45°
2026-04-28 19:26 30.18920 -9.55029 46930 ft 558 kts 45°
2026-04-28 19:26 30.24204 -9.48421 46919 ft 558 kts 45°
2026-04-28 19:27 30.29381 -9.41882 46920 ft 558 kts 45°
2026-04-28 19:27 30.34829 -9.35675 46913 ft 554 kts 37°
2026-04-28 19:28 30.40698 -9.30131 46916 ft 553 kts 37°
2026-04-28 19:28 30.46424 -9.24425 46923 ft 554 kts 38°
2026-04-28 19:29 30.51479 -9.19532 46923 ft 553 kts 37°
2026-04-28 19:29 30.58327 -9.12805 46939 ft 552 kts 38°
2026-04-28 19:30 30.63146 -9.08081 46942 ft 552 kts 37°
2026-04-28 19:30 30.68953 -9.02422 46936 ft 543 kts 37°
2026-04-28 19:31 30.74719 -8.96798 46945 ft 541 kts 37°
2026-04-28 19:31 30.80509 -8.91143 46951 ft 545 kts 37°
2026-04-28 19:32 30.86348 -8.85422 46952 ft 546 kts 37°
2026-04-28 19:32 30.92015 -8.79859 46960 ft 547 kts 37°
2026-04-28 19:33 30.97464 -8.74369 46965 ft 546 kts 38°
2026-04-28 19:33 31.02934 -8.68927 46970 ft 545 kts 37°
2026-04-28 19:34 31.08805 -8.63036 46972 ft 546 kts 37°
2026-04-28 19:34 31.14557 -8.57270 46978 ft 547 kts 37°
2026-04-28 19:35 31.19915 -8.51889 46981 ft 547 kts 38°
2026-04-28 19:35 31.25830 -8.45934 46758 ft 541 kts 38°
2026-04-28 19:36 31.27818 -8.43948 46123 ft 538 kts 37°
2026-04-28 19:36 31.30744 -8.41035 45439 ft 528 kts 37°
2026-04-28 19:36 31.33443 -8.38330 44786 ft 521 kts 37°
2026-04-28 19:36 31.36349 -8.35404 44040 ft 512 kts 37°
2026-04-28 19:37 31.39026 -8.32714 43399 ft 503 kts 37°
2026-04-28 19:37 31.40783 -8.30954 42973 ft 497 kts 37°
2026-04-28 19:37 31.44262 -8.27462 42133 ft 487 kts 37°
2026-04-28 19:37 31.46801 -8.24903 41515 ft 480 kts 37°
2026-04-28 19:38 31.49325 -8.22361 40897 ft 476 kts 37°
2026-04-28 19:38 31.51839 -8.19830 40277 ft 475 kts 37°
2026-04-28 19:38 31.54323 -8.17328 39658 ft 476 kts 37°
2026-04-28 19:38 31.56947 -8.14932 38995 ft 475 kts 30°
2026-04-28 19:39 31.59832 -8.13054 38334 ft 472 kts 20°
2026-04-28 19:39 31.62986 -8.11741 37702 ft 466 kts 10°
2026-04-28 19:39 31.66005 -8.11096 37124 ft 463 kts
2026-04-28 19:39 31.69131 -8.11014 36543 ft 459 kts 352°
2026-04-28 19:40 31.72191 -8.11502 35970 ft 455 kts 344°
2026-04-28 19:40 31.75493 -8.12465 35332 ft 454 kts 340°
2026-04-28 19:40 31.78584 -8.13455 34720 ft 455 kts 340°
2026-04-28 19:40 31.80671 -8.14034 34311 ft 458 kts 344°
2026-04-28 19:41 31.82237 -8.14355 34018 ft 460 kts 347°
2026-04-28 19:41 31.84968 -8.14751 33623 ft 458 kts 349°
2026-04-28 19:41 31.88174 -8.15153 33003 ft 459 kts 349°
2026-04-28 19:41 31.91328 -8.15735 32403 ft 460 kts 346°
2026-04-28 19:42 31.94486 -8.16441 31786 ft 463 kts 346°
2026-04-28 19:42 31.97702 -8.17055 31172 ft 467 kts 349°
2026-04-28 19:42 32.00902 -8.17567 30560 ft 469 kts 349°
2026-04-28 19:42 32.04136 -8.18135 29926 ft 468 kts 348°
2026-04-28 19:43 32.06900 -8.18685 29379 ft 462 kts 348°
2026-04-28 19:43 32.09918 -8.19276 28792 ft 457 kts 348°
2026-04-28 19:43 32.13198 -8.19583 28100 ft 457 kts
2026-04-28 19:43 32.16368 -8.19083 27586 ft 454 kts
2026-04-28 19:44 32.19124 -8.18603 27059 ft 454 kts
2026-04-28 19:44 32.22117 -8.18128 26486 ft 451 kts
2026-04-28 19:44 32.25390 -8.17626 25863 ft 447 kts
2026-04-28 19:44 32.28455 -8.17126 25278 ft 443 kts
2026-04-28 19:45 32.31467 -8.16619 24701 ft 440 kts
2026-04-28 19:45 32.34491 -8.16127 24124 ft 437 kts
2026-04-28 19:45 32.37570 -8.15638 23537 ft 434 kts
2026-04-28 19:45 32.40500 -8.15163 22934 ft 430 kts
2026-04-28 19:46 32.43462 -8.14674 22366 ft 426 kts
2026-04-28 19:46 32.46429 -8.14190 21803 ft 423 kts
2026-04-28 19:46 32.49358 -8.13716 21248 ft 420 kts
2026-04-28 19:46 32.52242 -8.13246 20698 ft 417 kts
2026-04-28 19:47 32.55087 -8.12781 20156 ft 414 kts
2026-04-28 19:47 32.57975 -8.12308 19603 ft 410 kts
2026-04-28 19:47 32.60686 -8.11866 19089 ft 407 kts
2026-04-28 19:47 32.63479 -8.11410 18563 ft 404 kts
2026-04-28 19:48 32.66253 -8.10956 18000 ft 401 kts
2026-04-28 19:48 32.68993 -8.10506 17470 ft 397 kts
2026-04-28 19:48 32.71715 -8.10061 16956 ft 395 kts
2026-04-28 19:48 32.74465 -8.09611 16426 ft 393 kts
2026-04-28 19:49 32.77145 -8.09170 15917 ft 390 kts
2026-04-28 19:49 32.79823 -8.08729 15406 ft 388 kts
2026-04-28 19:49 32.82513 -8.08287 14898 ft 386 kts
2026-04-28 19:49 32.85199 -8.07846 14385 ft 383 kts
2026-04-28 19:50 32.90397 -8.06834 13302 ft 379 kts 17°
2026-04-28 19:50 32.92670 -8.05327 12814 ft 374 kts 38°
2026-04-28 19:50 32.94301 -8.03175 12355 ft 371 kts 57°
2026-04-28 19:51 32.95410 -8.00346 11916 ft 366 kts 69°
2026-04-28 19:51 32.96331 -7.97471 11432 ft 366 kts 70°
2026-04-28 19:51 32.97217 -7.94714 10952 ft 355 kts 69°
2026-04-28 19:51 32.98126 -7.91967 10482 ft 337 kts 69°
2026-04-28 19:52 32.98825 -7.89854 10130 ft 323 kts 69°
2026-04-28 19:52 32.99531 -7.87687 9758 ft 309 kts 69°
2026-04-28 19:52 33.00329 -7.85229 9343 ft 295 kts 69°
2026-04-28 19:52 33.00961 -7.83293 9015 ft 290 kts 69°
2026-04-28 19:53 33.01689 -7.81066 8642 ft 289 kts 69°
2026-04-28 19:53 33.02417 -7.78834 8264 ft 289 kts 69°
2026-04-28 19:53 33.03145 -7.76594 7882 ft 289 kts 70°
2026-04-28 19:53 33.03872 -7.74363 7500 ft 288 kts 70°
2026-04-28 19:54 33.04594 -7.72142 7120 ft 287 kts 70°
2026-04-28 19:54 33.05314 -7.69929 6744 ft 286 kts 70°
2026-04-28 19:54 33.06029 -7.67725 6367 ft 284 kts 70°
2026-04-28 19:54 33.06499 -7.66276 6151 ft 279 kts 70°
2026-04-28 19:55 33.07184 -7.64167 5806 ft 268 kts 70°
2026-04-28 19:55 33.07855 -7.62097 5455 ft 259 kts 70°
2026-04-28 19:55 33.08449 -7.60261 5143 ft 252 kts 70°
2026-04-28 19:55 33.09072 -7.58336 4828 ft 245 kts 69°
2026-04-28 19:56 33.09680 -7.56456 4502 ft 240 kts 69°
2026-04-28 19:56 33.10278 -7.54606 4187 ft 238 kts 69°
2026-04-28 19:56 33.10935 -7.52770 3843 ft 237 kts 60°
2026-04-28 19:56 33.12170 -7.51491 3480 ft 231 kts 22°
2026-04-28 19:57 33.13659 -7.51177 3549 ft 218 kts 354°
2026-04-28 19:57 33.15139 -7.51512 3630 ft 216 kts 347°
2026-04-28 19:57 33.16624 -7.51901 3614 ft 219 kts 344°
2026-04-28 19:57 33.18082 -7.52390 3617 ft 220 kts 342°
2026-04-28 19:58 33.19494 -7.52872 3607 ft 198 kts 342°
2026-04-28 19:58 33.20727 -7.53291 3546 ft 180 kts 341°
2026-04-28 19:58 33.21897 -7.53689 3317 ft 165 kts 341°
2026-04-28 19:58 33.23026 -7.54077 3109 ft 171 kts 342°
2026-04-28 19:59 33.24163 -7.54466 2889 ft 169 kts 341°
2026-04-28 19:59 33.25304 -7.54858 2670 ft 171 kts 342°
2026-04-28 19:59 33.26392 -7.55229 2446 ft 150 kts 341°
2026-04-28 19:59 33.27268 -7.55534 2261 ft 132 kts 341°
2026-04-28 20:00 33.28112 -7.55822 2087 ft 119 kts 342°
2026-04-28 20:00 33.28896 -7.56091 1939 ft 118 kts 341°
2026-04-28 20:00 33.29680 -7.56360 1784 ft 118 kts 342°
2026-04-28 20:00 33.30478 -7.56635 1633 ft 120 kts 342°
2026-04-28 20:01 33.31292 -7.56915 1464 ft 121 kts 341°
2026-04-28 20:01 33.32109 -7.57194 1300 ft 118 kts 341°
2026-04-28 20:01 33.32891 -7.57462 1150 ft 116 kts 343°
2026-04-28 20:01 33.33673 -7.57732 1004 ft 120 kts 342°
2026-04-28 20:02 33.34493 -7.58011 847 ft 122 kts 342°
2026-04-28 20:02 33.35315 -7.58298 681 ft 122 kts 342°
2026-04-28 20:02 33.36170 -7.58572 1060 ft 138 kts 344°
2026-04-28 20:02 33.37174 -7.58860 1661 ft 157 kts 344°
2026-04-28 20:03 33.38280 -7.59143 2419 ft 162 kts 346°
2026-04-28 20:03 33.39430 -7.59398 3176 ft 172 kts 347°
2026-04-28 20:03 33.40667 -7.59688 3772 ft 191 kts 346°
2026-04-28 20:03 33.42076 -7.60027 4160 ft 226 kts 346°
2026-04-28 20:04 33.43552 -7.60578 3992 ft 219 kts 325°
2026-04-28 20:04 33.44363 -7.61963 3889 ft 205 kts 281°
2026-04-28 20:04 33.44125 -7.63583 3895 ft 195 kts 244°
2026-04-28 20:04 33.43487 -7.64993 4022 ft 195 kts 241°
2026-04-28 20:05 33.42841 -7.66459 4014 ft 202 kts 242°
2026-04-28 20:05 33.42173 -7.67980 4010 ft 205 kts 242°
2026-04-28 20:05 33.41508 -7.69485 3999 ft 205 kts 242°
2026-04-28 20:05 33.40842 -7.70995 4001 ft 205 kts 242°
2026-04-28 20:06 33.40235 -7.72537 3986 ft 204 kts 250°
2026-04-28 20:06 33.39846 -7.74171 3992 ft 204 kts 254°
2026-04-28 20:06 33.39478 -7.75813 4003 ft 205 kts 254°
2026-04-28 20:06 33.39093 -7.77457 3999 ft 205 kts 253°
2026-04-28 20:07 33.38695 -7.79097 4000 ft 204 kts 253°
2026-04-28 20:07 33.38434 -7.80174 4002 ft 205 kts 253°
2026-04-28 20:07 33.37893 -7.82366 4008 ft 205 kts 253°
2026-04-28 20:07 33.37491 -7.84002 4009 ft 205 kts 253°
2026-04-28 20:08 33.37089 -7.85632 4007 ft 205 kts 253°
2026-04-28 20:08 33.36679 -7.87265 4004 ft 205 kts 252°
2026-04-28 20:08 33.36266 -7.88903 4009 ft 206 kts 252°
2026-04-28 20:08 33.35856 -7.90540 4001 ft 205 kts 253°
2026-04-28 20:09 33.35451 -7.92175 4009 ft 205 kts 253°
2026-04-28 20:09 33.35055 -7.93792 4015 ft 204 kts 253°
2026-04-28 20:09 33.34285 -7.95191 3918 ft 221 kts 217°
2026-04-28 20:09 33.32735 -7.95703 3962 ft 231 kts 181°
2026-04-28 20:10 33.31194 -7.95116 3986 ft 235 kts 150°
2026-04-28 20:10 33.29923 -7.93949 4044 ft 238 kts 143°
2026-04-28 20:10 33.28619 -7.92786 4030 ft 239 kts 147°
2026-04-28 20:10 33.27327 -7.91740 4022 ft 238 kts 148°
2026-04-28 20:11 33.25958 -7.90630 4024 ft 237 kts 147°
2026-04-28 20:11 33.24603 -7.89506 4011 ft 237 kts 147°
2026-04-28 20:11 33.23271 -7.88400 4003 ft 237 kts 147°
2026-04-28 20:11 33.21914 -7.87279 4003 ft 237 kts 147°
2026-04-28 20:12 33.20563 -7.86165 4003 ft 237 kts 147°
2026-04-28 20:12 33.19206 -7.85045 4002 ft 236 kts 147°
2026-04-28 20:12 33.17860 -7.83934 3997 ft 237 kts 147°
2026-04-28 20:12 33.16943 -7.83177 4007 ft 237 kts 147°
2026-04-28 20:13 33.15131 -7.81681 4009 ft 237 kts 147°
2026-04-28 20:13 33.14216 -7.80928 3996 ft 237 kts 147°
2026-04-28 20:13 33.12435 -7.79460 4003 ft 237 kts 147°
2026-04-28 20:13 33.11512 -7.78700 3998 ft 237 kts 148°
2026-04-28 20:14 33.10187 -7.77609 4012 ft 236 kts 147°
2026-04-28 20:14 33.08928 -7.76573 4001 ft 237 kts 147°
2026-04-28 20:14 33.07585 -7.75468 4012 ft 238 kts 147°
2026-04-28 20:14 33.06221 -7.74330 4000 ft 238 kts 145°
2026-04-28 20:15 33.05260 -7.72891 3934 ft 241 kts 114°
2026-04-28 20:15 33.05063 -7.70888 3970 ft 240 kts 82°
2026-04-28 20:15 33.05589 -7.69005 4035 ft 241 kts 68°
2026-04-28 20:15 33.06207 -7.67183 4034 ft 243 kts 68°
2026-04-28 20:16 33.06838 -7.65249 4022 ft 242 kts 69°
2026-04-28 20:16 33.07438 -7.63378 4023 ft 242 kts 69°
2026-04-28 20:16 33.08044 -7.61506 4010 ft 241 kts 68°
2026-04-28 20:16 33.08649 -7.59643 4016 ft 241 kts 68°
2026-04-28 20:17 33.09251 -7.57784 4015 ft 242 kts 68°
2026-04-28 20:17 33.09744 -7.56260 4013 ft 242 kts 68°
2026-04-28 20:17 33.10340 -7.54416 4008 ft 241 kts 68°
2026-04-28 20:17 33.11047 -7.52591 3757 ft 245 kts 54°
2026-04-28 20:18 33.12371 -7.51426 3459 ft 231 kts 19°
2026-04-28 20:18 33.13415 -7.51179 3509 ft 225 kts
2026-04-28 20:18 33.15471 -7.51605 3630 ft 231 kts 345°
2026-04-28 20:18 33.17069 -7.52024 3618 ft 232 kts 346°
2026-04-28 20:19 33.18620 -7.52570 3618 ft 230 kts 340°
2026-04-28 20:19 33.20150 -7.53122 3612 ft 232 kts 342°
2026-04-28 20:19 33.21730 -7.53641 3373 ft 237 kts 342°
2026-04-28 20:19 33.23173 -7.54126 3083 ft 196 kts 342°
2026-04-28 20:20 33.24375 -7.54542 2806 ft 167 kts 341°
2026-04-28 20:20 33.25401 -7.54897 2610 ft 157 kts 342°
2026-04-28 20:20 33.26441 -7.55253 2419 ft 154 kts 341°
2026-04-28 20:20 33.27477 -7.55609 2218 ft 155 kts 342°
2026-04-28 20:21 33.28457 -7.55943 2023 ft 136 kts 341°
2026-04-28 20:21 33.29296 -7.56229 1851 ft 124 kts 342°
2026-04-28 20:21 33.30113 -7.56508 1696 ft 120 kts 342°
2026-04-28 20:21 33.30925 -7.56788 1523 ft 121 kts 342°
2026-04-28 20:22 33.31729 -7.57061 1369 ft 119 kts 341°
2026-04-28 20:22 33.32530 -7.57334 1230 ft 116 kts 342°
2026-04-28 20:22 33.33319 -7.57613 1069 ft 121 kts 342°
2026-04-28 20:22 33.34128 -7.57880 936 ft 121 kts 342°
2026-04-28 20:23 33.34990 -7.58182 745 ft 122 kts 343°
2026-04-28 20:23 33.35748 -7.58442 651 ft 110 kts 343°
2026-04-28 20:23 33.36432 -7.58673 648 ft 79 kts 343°
2026-04-28 20:23 33.36678 -7.58760 649 ft 34 kts 342°
2026-04-28 20:24 33.36814 -7.58771 649 ft 11 kts 47°
2026-04-28 20:24 33.36836 -7.58695 649 ft 9 kts 73°
2026-04-28 20:24 33.36850 -7.58637 649 ft 9 kts 75°
2026-04-28 20:24 33.36864 -7.58577 649 ft 7 kts 74°
2026-04-28 20:25 33.36877 -7.58525 649 ft 6 kts 74°
2026-04-28 20:25 33.36869 -7.58479 649 ft 6 kts 129°
2026-04-28 20:25 33.36836 -7.58458 649 ft 5 kts 164°
2026-04-28 20:25 33.36800 -7.58446 649 ft 8 kts 164°
2026-04-28 20:26 33.36722 -7.58420 649 ft 16 kts 164°
2026-04-28 20:26 33.36613 -7.58381 650 ft 18 kts 162°
2026-04-28 20:26 33.36491 -7.58340 652 ft 18 kts 166°
2026-04-28 20:26 33.36376 -7.58300 649 ft 18 kts 163°
2026-04-28 20:27 33.36257 -7.58257 649 ft 17 kts 164°
2026-04-28 20:27 33.36144 -7.58219 649 ft 17 kts 164°
2026-04-28 20:27 33.36043 -7.58186 649 ft 13 kts 166°
2026-04-28 20:27 33.35929 -7.58147 649 ft 20 kts 164°
2026-04-28 20:28 33.35800 -7.58103 649 ft 19 kts 164°
2026-04-28 20:28 33.35674 -7.58060 650 ft 18 kts 163°
2026-04-28 20:28 33.35598 -7.58025 649 ft 7 kts 124°
2026-04-28 20:28 33.35602 -7.57972 652 ft 6 kts 73°
2026-04-28 20:29 33.35605 -7.57958 650 ft 0 kts 73°
2026-04-28 20:34 33.35612 -7.57932 649 ft 6 kts 73°
2026-04-28 20:34 33.35623 -7.57885 649 ft 6 kts 74°
2026-04-28 20:34 33.35633 -7.57839 650 ft 6 kts 74°
2026-04-28 20:35 33.35650 -7.57772 650 ft 13 kts 72°
2026-04-28 20:35 33.35679 -7.57659 651 ft 14 kts 74°
2026-04-28 20:35 33.35706 -7.57549 651 ft 14 kts 72°
2026-04-28 20:35 33.35735 -7.57442 651 ft 13 kts 72°
2026-04-28 20:36 33.35758 -7.57338 649 ft 13 kts 76°
2026-04-28 20:36 33.35770 -7.57286 649 ft 0 kts 73°
2026-04-28 20:37 33.35770 -7.57285 649 ft 1 kts 73°
2026-04-28 20:37 33.35771 -7.57279 649 ft 5 kts 73°
2026-04-28 20:37 33.35785 -7.57222 649 ft 15 kts 75°
2026-04-28 20:38 33.35818 -7.57078 652 ft 16 kts 75°
2026-04-28 20:38 33.35861 -7.57037 649 ft 8 kts 352°
2026-04-28 20:38 33.35893 -7.57048 649 ft 1 kts 11°
2026-04-28 20:38 33.35899 -7.57032 653 ft 2 kts 104°
2026-04-28 20:39 33.35897 -7.57029 652 ft 0 kts 117°
2026-04-28 20:39 33.35891 -7.57020 651 ft 0 kts 125°
2026-04-28 20:39 33.35888 -7.57015 649 ft 1 kts 125°
2026-04-28 20:39 33.35887 -7.57013 649 ft 0 kts 125°